Davenport, IA

10:49 PM CST on November 18, 2019 (GMT -0600)
Davenport Municipal

Weather History for KDVN - October, 2019

Change the Weather History Date:

Monday, October 21, 2019

  Actual Average Record
Temperature  
Mean Temperature 56 °F 50 °F  
Max Temperature 63 °F 61 °F 84 °F (1979)
Min Temperature 48 °F 39 °F 22 °F (2018)
Degree Days  
Heating Degree Days 9 15  
Month to date heating degree days 230 253  
Since 1 July heating degree days 248 388  
Cooling Degree Days 0 0  
Month to date cooling degree days 18 11  
Year to date cooling degree days 1027 785  
Growing Degree Days 5 (Base 50)    
Moisture  
Dew Point 48 °F    
Average Humidity 71    
Maximum Humidity 93    
Minimum Humidity 49    
Precipitation  
Precipitation 0.57 in 0.10 in 0.59 in (1958)
Month to date precipitation 1.91 2.04  
Year to date precipitation 40.71 30.92  
Snow  
Snow 0.00 in - - ()
Month to date snowfall 0.0  
Since 1 July snowfall 0.0  
Since 1 September snowfall 0.0  
Snow Depth 0.00 in    
Sea Level Pressure  
Sea Level Pressure 29.47 in    
Wind  
Wind Speed 19 mph (SSE)    
Max Wind Speed 33 mph    
Max Gust Speed 47 mph    
Visibility 8 miles    
Events Rain , Thunderstorm    
T = Trace of Precipitation, MM = Missing Value Source: NWS Daily Summary

Daily Weather History Graph

Daily Weather History Graph

Search for Another Location

Airport or City:

Astronomy

Oct. 21, 2019 Rise Set
Actual Time 7:21 AM CDT 6:12 PM CDT
Civil Twilight 6:52 AM CDT 6:40 PM CDT
Nautical Twilight 6:20 AM CDT 7:12 PM CDT
Astronomical Twilight 5:48 AM CDT 7:44 PM CDT
Moon No Moon Rise 2:41 PM CDT (10/21)
Length of Visible Light 11h 47m
Length of Day
10h 51m
Waning Gibbous, 48% of the Moon is Illuminated
Oct 21
Waning Gibbous
Oct 27
New
Nov 4
First Quarter
Nov 12
Full
Nov 19
Last Quarter

Hourly Weather History & Observations

Time (CDT) Temp. Dew Point Humidity Pressure Visibility Wind Dir Wind Speed Gust Speed Precip Events Conditions
12:52 AM 54.0 °F 48.9 °F 83% 29.74 in 10.0 mi East 12.7 mph - N/A   Scattered Clouds
1:52 AM 54.0 °F 48.9 °F 83% 29.71 in 8.0 mi East 12.7 mph - N/A   Overcast
2:52 AM 54.0 °F 48.9 °F 83% 29.66 in 7.0 mi East 16.1 mph - N/A   Clear
3:52 AM 54.0 °F 48.9 °F 83% 29.60 in 7.0 mi East 17.3 mph 25.3 mph N/A   Mostly Cloudy
4:52 AM 54.0 °F 50.0 °F 86% 29.55 in 8.0 mi ESE 13.8 mph 27.6 mph 0.00 in Rain , Thunderstorm Light Thunderstorms and Rain
5:10 AM 54.0 °F 50.0 °F 86% 29.56 in 2.5 mi ESE 11.5 mph - 0.06 in Rain , Thunderstorm Heavy Rain
5:13 AM 54.0 °F 50.0 °F 86% 29.56 in 3.0 mi ESE 9.2 mph 20.7 mph 0.07 in Rain , Thunderstorm Thunderstorms and Rain
5:21 AM 54.0 °F 51.1 °F 90% 29.57 in 2.0 mi SE 8.1 mph - 0.15 in Rain , Thunderstorm Heavy Thunderstorms and Rain
5:28 AM 54.0 °F 51.1 °F 90% 29.54 in 3.0 mi ESE 5.8 mph - 0.17 in Rain , Thunderstorm Thunderstorms and Rain
5:40 AM 54.0 °F 51.1 °F 90% 29.54 in 5.0 mi ESE 9.2 mph - 0.18 in Rain , Thunderstorm Light Rain
5:52 AM 54.0 °F 51.1 °F 90% 29.54 in 3.0 mi South 9.2 mph - 0.22 in Rain , Thunderstorm Thunderstorms and Rain
5:55 AM 54.0 °F 51.1 °F 90% 29.55 in 1.8 mi South 6.9 mph - 0.07 in Rain , Thunderstorm Heavy Thunderstorms and Rain
6:14 AM 53.1 °F 51.1 °F 93% 29.53 in 2.0 mi ESE 9.2 mph - 0.20 in Rain , Thunderstorm Heavy Thunderstorms and Rain
6:31 AM 54.0 °F 51.1 °F 90% 29.49 in 2.5 mi ESE 15.0 mph 23.0 mph 0.25 in Rain , Thunderstorm Rain
6:38 AM 54.0 °F 52.0 °F 93% 29.44 in 3.0 mi East 19.6 mph 31.1 mph 0.27 in Rain , Thunderstorm Rain
6:52 AM 55.0 °F 52.0 °F 89% 29.39 in 3.0 mi East 17.3 mph - 0.32 in Rain Rain
7:08 AM 55.0 °F 52.0 °F 89% 29.39 in 9.0 mi ESE 16.1 mph 24.2 mph 0.00 in   Overcast
7:52 AM 55.0 °F 52.0 °F 89% 29.37 in 8.0 mi ESE 18.4 mph 28.8 mph 0.00 in   Mostly Cloudy
7:59 AM 55.0 °F 53.1 °F 93% 29.38 in 7.0 mi ESE 15.0 mph 28.8 mph N/A   Mostly Cloudy
8:33 AM 57.0 °F 54.0 °F 89% 29.38 in 8.0 mi SE 12.7 mph - N/A   Overcast
8:52 AM 57.9 °F 55.0 °F 90% 29.35 in 8.0 mi SE 15.0 mph - N/A   Overcast
9:52 AM 60.1 °F 57.0 °F 90% 29.33 in 8.0 mi South 13.8 mph 24.2 mph 0.03 in Rain Light Rain
9:55 AM 60.1 °F 57.0 °F 90% 29.35 in 10.0 mi South 16.1 mph - 0.00 in   Overcast
10:09 AM 60.1 °F 57.0 °F 90% 29.35 in 10.0 mi South 20.7 mph 32.2 mph 0.00 in   Overcast
10:25 AM 60.1 °F 57.0 °F 90% 29.35 in 10.0 mi SSW 16.1 mph 31.1 mph 0.00 in   Overcast
10:52 AM 61.0 °F 55.9 °F 83% 29.35 in 10.0 mi SSW 17.3 mph 36.8 mph 0.00 in   Overcast
11:39 AM 62.1 °F 53.1 °F 72% 29.37 in 10.0 mi SSW 20.7 mph 29.9 mph N/A   Mostly Cloudy
11:52 AM 62.1 °F 50.0 °F 65% 29.35 in 10.0 mi SSW 20.7 mph 32.2 mph N/A   Scattered Clouds
12:52 PM 61.0 °F 43.0 °F 52% 29.37 in 10.0 mi SSW 27.6 mph 41.4 mph N/A   Clear
1:52 PM 61.0 °F 43.0 °F 52% 29.37 in 10.0 mi SSW 20.7 mph 35.7 mph N/A   Partly Cloudy
2:52 PM 60.1 °F 41.0 °F 49% 29.39 in 10.0 mi SW 26.5 mph 38.0 mph N/A   Scattered Clouds
3:52 PM 57.0 °F 41.0 °F 55% 29.43 in 10.0 mi SW 24.2 mph 39.1 mph N/A   Overcast
4:52 PM 53.1 °F 37.9 °F 57% 29.47 in 10.0 mi SW 20.7 mph 33.4 mph N/A   Overcast
5:52 PM 52.0 °F 37.9 °F 59% 29.49 in 10.0 mi SW 17.3 mph 32.2 mph N/A   Overcast
6:52 PM 52.0 °F 39.0 °F 61% 29.50 in 10.0 mi SW 17.3 mph 33.4 mph N/A   Overcast
7:52 PM 52.0 °F 39.0 °F 61% 29.51 in 10.0 mi SW 18.4 mph 31.1 mph N/A   Mostly Cloudy
8:52 PM 52.0 °F 39.9 °F 63% 29.50 in 10.0 mi SSW 19.6 mph 34.5 mph N/A   Overcast
9:52 PM 51.1 °F 41.0 °F 68% 29.49 in 10.0 mi SSW 21.9 mph 33.4 mph N/A   Mostly Cloudy
10:52 PM 52.0 °F 41.0 °F 66% 29.47 in 10.0 mi SW 24.2 mph 35.7 mph N/A   Overcast
11:45 PM 48.0 °F 42.1 °F 80% 29.50 in 10.0 mi SW 19.6 mph 40.3 mph 0.00 in   Overcast
11:52 PM 48.0 °F 41.0 °F 77% 29.49 in 10.0 mi SW 25.3 mph 36.8 mph 0.00 in   Overcast
11:59 PM 48.0 °F 41.0 °F 77% 29.50 in 10.0 mi SW 20.7 mph 33.4 mph N/A   Overcast